World > North America > United States > Michigan > Oxford

Oxford, MI Hourly Weather Conditions

Feedback E-mail the Weather

Quick WX

Oxford, MI Weather Maps

°F °C°F °C
Oxford Weather Map
UTC Time: 2/1/2023, 18:56
Your Time:

Oxford, MI Regional Weather

Expires:202302011900;;628296
ASUS43 KDTX 011810
RWRMI 
MICHIGAN HOURLY REGIONAL WEATHER ROUNDUP
NATIONAL WEATHER SERVICE DETROIT/PONTIAC MI
100 PM EST WED FEB 01 2023

NOTE: "FAIR" INDICATES FEW OR NO CLOUDS BELOW 12,000 FEET WITH NO
SIGNIFICANT WEATHER AND/OR OBSTRUCTION TO VISIBILITY.


MIZ047>049-052>055-059>063-066>070-074>076-081>083-011900-
SOUTHEAST LOWER MICHIGAN
  
CITY           SKY/WX    TMP DP  RH WIND       PRES   REMARKS
ADRIAN         SUNNY     19   8  62 SW9       30.35F WCI   8          
6HR MIN TEMP:   4; 6HR MAX TEMP:  19;                                

ALMA           SUNNY     25  12  57 S17       30.24F WCI  11          
6HR MIN TEMP:   2; 6HR MAX TEMP:  25;                                

ANN ARBOR      SUNNY     20  10  65 SW13      30.32F WCI   7          
BAD AXE        SUNNY     22  12  66 W9        30.22F WCI  11          
6HR MIN TEMP:   7; 6HR MAX TEMP:  22;                                

CARO           SUNNY     25  13  59 SW16      30.24F WCI  13          
DETROIT CITY   SUNNY     24  11  57 SW13      30.32F WCI  12          
6HR MIN TEMP:  12; 6HR MAX TEMP:  24;                                

DETROIT        MOSUNNY   22  10  60 SW12      30.34F WCI  10          
6HR MIN TEMP:   8; 6HR MAX TEMP:  22;                                

FLINT          SUNNY     22  12  65 SW10      30.27F WCI  11          
6HR MIN TEMP:   8; 6HR MAX TEMP:  22;                                

GROSSE ILE     SUNNY     22  12  65 SW10      30.34F WCI  11          
6HR MIN TEMP:  10; 6HR MAX TEMP:  22;                                

HILLSDALE      SUNNY     20   6  54 SW9       30.30F WCI   9          
6HR MIN TEMP:   5; 6HR MAX TEMP:  20;                                

HOWELL         SUNNY     24  14  65 SW10      30.28F WCI  13          
6HR MIN TEMP:   9; 6HR MAX TEMP:  24;                                


CITY           SKY/WX    TMP DP  RH WIND       PRES   REMARKS
JACKSON        SUNNY     20  10  65 S15       30.30F WCI   6          
6HR MIN TEMP:   8; 6HR MAX TEMP:  20;                                

LAMBERTVILLE   SUNNY     23  11  60 W8        30.36F WCI  14          
6HR MIN TEMP:   9; 6HR MAX TEMP:  23;                                

LANSING        SUNNY     23  12  62 SW18G24   30.29F WCI   9          
6HR MIN TEMP:  10; 6HR MAX TEMP:  23;                                

LAPEER         MOSUNNY   24  13  62 SW16      30.26F WCI  11          
6HR MIN TEMP:   9; 6HR MAX TEMP:  24;                                

MASON          SUNNY     22  10  60 SW9G16    30.28F WCI  12          
6HR MIN TEMP:   9; 6HR MAX TEMP:  22;                                

MONROE         SUNNY     21  11  65 SW15      30.35F WCI   8          
6HR MIN TEMP:   7; 6HR MAX TEMP:  21;                                

MT. CLEMENS    MOSUNNY   24  11  57 SW9       30.29F WCI  15          
6HR MIN TEMP:   8; 6HR MAX TEMP:  24;                                

PONTIAC        MOSUNNY   27  14  59 SW12      30.27F WCI  16          
PORT HOPE        N/A     21  11  65 SW12G20   30.21F WCI   9          
6HR MIN TEMP:   9; 6HR MAX TEMP:  21;                                

PORT HURON     SUNNY     25  10  54 S6        30.29F WCI  18          
TRI CITIES     SUNNY     23  14  68 SW15G22   30.24F WCI  10          
6HR MIN TEMP:   5; 6HR MAX TEMP:  23;                                

MIDLAND        SUNNY     24  14  64 SW14G20   30.22F WCI  12          
6HR MIN TEMP:  10; 6HR MAX TEMP:  24;                                

TROY           SUNNY     24  10  56 S9        30.32F WCI  14          
SAGINAW HB     SUNNY     24  13  64 SW14      30.25F WCI  11          
6HR MIN TEMP:   8; 6HR MAX TEMP:  24;                                

$$

SKY/WX - Weather  TMP - Temperature  DP - Dew Point  RH - Humidity
WIND - Wind Direction/Speed PRES - Barometric Pressure VSB - Visibility
WCI - Wind Chill Index E13G22 Wind - East Wind 13 mph/Gusts of 22 mph

Trending Headlines

Trending Entertainment Headlines

Oxford Radar Loop

Use the map search tool if you want to place a location marker on the radar map...

Oxford Quick Facts

National Two Day Weather Forecast


E-mail the Oxford Weather Forecast

Voice your opinion or tell us about page issues...